Other Surface Observations
Issued by NWS Charleston, SC

Home | Current Version | Previous Version | Text Only | Print | Product List | Glossary On
Versions: 1 2 3 4 5 6 7 8 9 10 11 12 13 14 15 16 17 18 19 20 21 22 23 24 25 26 27 28 29 30 31 32 33 34 35 36 37 38 39 40 41 42 43 44 45 46 47 48 49 50
000
SXUS52 KCHS 300827
OSOCHS

MARINE OBSERVATIONS
NATIONAL WEATHER SERVICE CHARLESTON SC
400 AM EDT TUE JUN 30 2015

...DOWNTOWN CHARLESTON AND HARBOR...

CITY           SKY/WX    TMP DP  RH WIND       PRES   REMARKS
WATERFRONT PRK   N/A     78  74  87 SW6       29.96S
FORT JOHNSON   NOT AVBL

...LAKE MOULTRIE...

CITY           SKY/WX    TMP DP  RH WIND       PRES   REMARKS
PINOPOLIS      NOT AVBL

...LAKE AND SUPPLEMENTAL COASTAL OBSERVATIONS...

STATION/POSITION TIME  TEMP    WIND        PRES    WAVE   SWELL
                       AIR SEA DIR/SP/G            HT/PER HT/PER/DIR
                 (UTC) (F)     (DEG/KT/KT) (MB)    (FT/S) (FT/S/D)
FORT PULASKI     0800   76 84  220/  5/  9 1016.2F
SAPELO ISLAND    0800   77     240/  8     1016.0F
UPR LAKE MARION  NOT AVBL
WINYAH BAY       0745   75     240/  6     1014.0S
LAKE MURRAY      0800   79     230/  7/  9 1013.9S
ACE BASIN NERRS  NOT AVBL


...C-MAN AND BUOY OBSERVATIONS...

STATION/POSITION TIME  TEMP    WIND        PRES    WAVE   SWELL
                       AIR SEA DIR/SP/G            HT/PER HT/PER/DIR
                 (UTC) (F)     (DEG/KT/KT) (MB)    (FT/S) (FT/S/D)
BUOY 41004       0750   81 83  250/ 17/ 19 1014.6F   4/ 8   3/ 8
BUOY 41008       0750   80 79  250/  8/ 10 1016.2F   2/ 8   2/120/ 8
FOLLY BEACH CMAN 0800   78     250/  5/  6 1015.3F
CAPERS NS BUOY   0708   81     240/ 16/ 19 1015.5F
FRIPP NS BUOY    0700   82     240/ 14/ 17 1015.6
5E ST. MARYS GA  0721      78                N/A     2/ 8


STATION/POSITION TIME  TEMP    WIND        PRES    WAVE   SWELL
                       AIR SEA DIR/SP/G            HT/PER HT/PER/DIR
                 (UTC) (F)     (DEG/KT/KT) (MB)    (FT/S) (FT/S/D)
FRYING PAN BUOY  0750   81 80  240/ 16/ 19 1015.0R   4/ 7
BUOY 41025       0750   79 80  240/ 10/ 10 1014.2S   4/ 8   3/130/ 8
CAPE LOOKOUT NC  0800   79     230/  8/  9 1014.2R
BUOY 41002       0750   78 80  210/ 19/ 25 1016.5F   5/ 6
BUOY 41010       0720   82 84  240/ 14/ 16 1017.6S
ST AUGUSTINE FL  0800   74 74  250/  4/  4 1017.9S

$$



USA.gov is the U.S. government's official web portal to all federal, state and local government web resources and services.